Regional Weather Roundup
Issued by NWS

Home | Current Version | Previous Version | Text Only | Print | Product List | Glossary Off
Versions: 1 2 3 4 5 6 7 8 9 10 11 12 13 14 15 16 17 18 19 20 21 22 23 24 25 26 27 28 29 30 31 32 33 34 35 36 37 38 39 40 41 42 43 44 45 46 47 48 49 50

000
ASUS43 KBIS 291710
RWRND

NORTH DAKOTA REGIONAL WEATHER ROUNDUP
NATIONAL WEATHER SERVICE BISMARCK ND
1200 PM CDT FRI MAY 29 2015

NOTE: "FAIR" INDICATES FEW OR NO CLOUDS BELOW 12,000 FEET WITH NO
SIGNIFICANT WEATHER AND/OR OBSTRUCTIONS TO VISIBILITY.


NDZ001>003-009>011-017-291800-
NORTHWEST NORTH DAKOTA

CITY           SKY/WX    TMP DP  RH WIND       PRES   REMARKS
WILLISTON      CLOUDY    49  33  54 N13       30.33S
MINOT          CLOUDY    45  34  65 NW15      30.29R
MINOT AFB      CLOUDY    47  40  75 N13       30.29R
$$

NDZ018>021-031>035-040>046-291800-
SOUTHWEST NORTH DAKOTA

CITY           SKY/WX    TMP DP  RH WIND       PRES   REMARKS
BISMARCK       CLOUDY    52  34  50 N16G23    30.24R
DICKINSON      CLOUDY    47  33  58 N10G20    30.27R
GARRISON         N/A     47  34  60 N15G21    30.28R
HETTINGER ARPT CLOUDY    48  36  63 NW17G23   30.27R
$$

NDZ004>008-012>016-024-026-027-054-291800-
NORTHEAST NORTH DAKOTA

CITY           SKY/WX    TMP DP  RH WIND       PRES   REMARKS
GRAND FORKS    CLOUDY    46  37  71 N25G32    30.17R
GRND FRKS AFB  CLOUDY    47  35  63 N26G33    30.18R
DEVILS LAKE    CLOUDY    48  32  53 N22G30    30.21S
$$

NDZ022-023-025-028>030-036>039-047>053-291800-
SOUTHEAST NORTH DAKOTA

CITY           SKY/WX    TMP DP  RH WIND       PRES   REMARKS
FARGO          CLOUDY    47  40  76 N21G32    30.13R
JAMESTOWN      CLOUDY    49  38  65 N25G35    30.17R
$$




USA.gov is the U.S. government's official web portal to all federal, state and local government web resources and services.